Content
SEND FEEDBACK

Daily
Averages
Monthly
Summary
United States of America

NEW YORK - UPPER EAST SIDE, NEW YORK


Home > North America > United States > New York
Elevation: 132 feet     Latitude: 40 47N     Longitude: 073 58W

WEATHER
 
SELECT A DAY
Number of Records: 148,264;   Date Range: 11/1/95 - 9/3/14
 
SHARE

PRINT THIS DATA

[ ← Previous Day ]
WEATHER ALMANAC - JULY 16, 2013
[ Next Day → ]
[ °C ]   °F
Weather ElementAverageHighLow
Temperature86.2 °F93 °F (12:51 pm)78.1 °F (5:51 am)
Dewpoint64.6 °F69.1 °F (1:51 am)60.1 °F (8:51 pm)
Humidity49.9 %69 % (4:51 am)36 % (3:51 pm)
Barometer30.17 in30.20 in (7:51 am)30.13 in (6:51 pm)
Wind Speed4.9 mph12.7 mph (4:51 pm)
Wind Gust20.7 mph (4:51 pm)
Weather ElementAverage
Visibility9.3 mi
Wind DirectionENE (59.6 °)

Weather ElementTotal
Precipitation---
Cooling Degree Days20.6 (Base 65)
Growing Degree Days35.6 (Base 50)
Averaged from 23 records on July 16, 2013
WEATHER CONDITIONS BREAKOUT
WIND DIRECTION BREAKOUT
WEATHER BY HOUR - JULY 16, 2013
[ °C ]   °F
Local TimeTemperatureDewpointHumidityBarometerVisibilityWind DirectionWind SpeedGust SpeedPrecipitationEventsConditions
1:51 AM82.9 °F69.1 °F63 %30.16 in10.0 miCalmClear
2:51 AM81.0 °F68.0 °F65 %30.16 in10.0 miVariable3.5 mphClear
3:51 AM80.1 °F68.0 °F67 %30.16 in10.0 miCalmClear
4:51 AM79.0 °F68.0 °F69 %30.16 in10.0 miCalmClear
5:51 AM78.1 °F66.9 °F68 %30.18 in9.0 miVariable3.5 mphClear
6:51 AM78.1 °F66.9 °F68 %30.19 in9.0 miVariable3.5 mphClear
7:51 AM80.1 °F66.9 °F64 %30.20 in9.0 miCalmClear
8:51 AM82.0 °F66.0 °F58 %30.20 in9.0 miNorth (360°)5.8 mphClear
9:51 AM84.0 °F66.0 °F55 %30.20 in9.0 miNE (40°)5.8 mphClear
10:51 AM86.0 °F66.9 °F53 %30.19 in9.0 miNorth (360°)9.2 mphClear
11:51 AM90.0 °F66.0 °F45 %30.18 in9.0 miVariable3.5 mphClear
12:51 PM93.0 °F64.9 °F39 %30.17 in9.0 miNorth (360°)5.8 mphClear
1:51 PM93.0 °F63.0 °F37 %30.16 in9.0 miVariable6.9 mphClear
2:51 PM93.0 °F63.0 °F37 %30.16 in9.0 miNNE (30°)8.1 mphPartly Cloudy
3:51 PM93.0 °F62.1 °F36 %30.15 in9.0 miNE (50°)8.1 mphClear
4:51 PM91.0 °F62.1 °F38 %30.14 in9.0 miENE (60°)12.7 mph20.7 mphClear
5:51 PM91.0 °F62.1 °F38 %30.14 in9.0 miNE (50°)9.2 mphClear
6:51 PM90.0 °F63.0 °F40 %30.13 in9.0 miVariable6.9 mphClear
7:51 PM89.1 °F62.1 °F40 %30.15 in9.0 miVariable5.8 mphClear
8:51 PM88.0 °F60.1 °F39 %30.15 in10.0 miVariable4.6 mphClear
9:51 PM87.1 °F61.0 °F41 %30.17 in10.0 miNNE (30°)4.6 mphClear
10:51 PM87.1 °F61.0 °F41 %30.17 in10.0 miNNE (30°)4.6 mphOvercast
11:51 PM84.9 °F62.1 °F46 %30.17 in10.0 miCalmMostly Cloudy
Hourly data recorded from KNYC, located miles away from New York - Upper East Side, New York







STORIES FROM OUR PARTNERS